Delta Virtual Airport Information Service

Copenhagen Airport

ICAO: EKCH Country: Denmark
Latitude: 55.6084 Longitude: 12.6454
Latest Arrival : DAC5282 (ULLI-EKCH) Latest Departure : SAS1517 (EKCH-EGLL)


WX CaptureLIVE
Data provided by noaa.gov | Fetched at 04:53:35

METAR : EKCH 300920Z AUTO 15009KT 9999 NCD 17/13 Q1017 NOSIG

TAF : EKCH 300518Z 3006/0106 15008KT 9999 FEW015 BECMG 3022/3024 0800 BCFG BKN003 TEMPO 0100/0104 5000 NSW BKN007 BECMG 0104/0106 9000 NSW BKN015


Runway Data for EKCH
Data provided by openaviationdata.com

Runway ID Mag Var Hdg Length Elevation Surface ILS Freq ILS Id ILS Slope
04L 2 38° 11694 ft 17 ft Asphalt 110.5 CH 3
04R 2 38° 10812 ft 17 ft Asphalt 109.3 NE 3
12 2 120° 8728 ft 17 ft Asphalt 109.9 KA 3
22L 2 218° 10812 ft 17 ft Asphalt 109.5 OXS 3
22R 2 218° 11694 ft 17 ft Asphalt 110.9 KLK 3
30 2 300° 8728 ft 17 ft Asphalt 108.9 OY 3

Copenhagen Airport, Denmark
Use only for reference purposes



Not for navigational purposes.